CW5398 Weather Reports


Display with metric or nautical units.
time (UTC)temp
F
wind
direction
speed
MPH
gust
MPH
rain 1hr
in
rain 24hr
in
rain mn
in
humidity
%
barometer
mb
20260904031537 54 242 0.0 0.0 0.00 0.00 0.00 87 1009.7
20260904030517 55 242 0.0 0.0 0.00 0.00 0.00 86 1009.6
20260904025516 56 242 0.0 0.0 0.00 0.00 0.00 84 1009.6
20260904024517 56 242 0.0 0.0 0.00 0.00 0.00 84 1009.6
20260904023517 57 242 0.0 0.0 0.00 0.00 0.00 82 1009.5
20260904022516 58 242 0.0 0.0 0.00 0.00 0.00 81 1009.3
20260904021516 58 242 0.0 0.0 0.00 0.00 0.00 79 1009.3
20260904020516 59 242 0.0 0.0 0.00 0.00 0.00 78 1009.3
20260904015516 59 248 0.0 3.0 0.00 0.00 0.00 77 1009.3
20260904014537 60 248 1.0 4.0 0.00 0.00 0.00 75 1009.3
20260904013516 60 248 2.0 5.0 0.00 0.00 0.00 74 1009.1
20260904012516 61 248 1.0 5.0 0.00 0.00 0.00 73 1009.0
20260904011516 62 248 0.0 4.0 0.00 0.00 0.00 71 1009.0
20260904010516 62 248 1.0 4.0 0.00 0.00 0.00 70 1008.9
20260904005516 63 248 1.0 6.0 0.00 0.00 0.00 69 1008.8
20260904004536 63 248 1.0 4.0 0.00 0.00 0.00 69 1008.8
20260904003516 64 248 0.0 3.0 0.00 0.00 0.00 68 1008.9
20260904002516 64 248 0.0 1.0 0.00 0.00 0.00 66 1008.8
20260904001516 63 248 0.0 1.0 0.00 0.00 0.00 67 1008.8
20260904000516 63 248 0.0 1.0 0.00 0.00 0.00 67 1009.0
20260903235516 62 248 0.0 1.0 0.00 0.00 0.00 66 1009.1
20260903234516 62 248 0.0 2.0 0.00 0.01 0.00 65 1009.1
20260903233516 62 248 0.0 2.0 0.00 0.01 0.00 66 1009.1
20260903232516 63 248 1.0 3.0 0.00 0.01 0.00 66 1009.1
20260903231516 63 248 0.0 1.0 0.00 0.01 0.00 70 1009.1
20260903230516 62 248 1.0 4.0 0.00 0.01 0.00 69 1009.1
20260903225516 62 248 1.0 5.0 0.00 0.01 0.00 73 1009.3
20260903224516 61 248 1.0 4.0 0.00 0.01 0.00 74 1009.3
20260903223516 60 270 1.0 3.0 0.00 0.01 0.00 75 1009.4
20260903222536 60 270 0.0 1.0 0.00 0.01 0.00 76 1009.5
20260903221516 59 270 1.0 4.0 0.00 0.01 0.00 76 1009.5
20260903220516 59 270 1.0 4.0 0.00 0.01 0.00 82 1009.6
20260903215516 58 270 0.0 3.0 0.00 0.01 0.00 83 1009.6
20260903214516 58 270 1.0 3.0 0.00 0.01 0.00 84 1009.6
20260903213516 58 270 3.0 5.0 0.00 0.01 0.00 84 1009.5
20260903212536 58 270 3.0 6.0 0.00 0.01 0.00 84 1009.3
20260903211516 59 293 1.0 4.0 0.00 0.01 0.00 83 1009.3
20260903210515 59 294 0.0 0.0 0.00 0.01 0.00 83 1009.2
20260903205516 59 293 0.0 1.0 0.00 0.01 0.00 81 1009.1
20260903204516 60 293 0.0 3.0 0.00 0.01 0.00 79 1009.1
20260903203536 60 293 0.0 3.0 0.00 0.01 0.00 76 1009.0
20260903202515 61 293 1.0 5.0 0.00 0.01 0.00 74 1008.8
20260903201536 61 293 1.0 5.0 0.00 0.01 0.00 74 1008.8
20260903200536 61 23 0.0 3.0 0.00 0.01 0.00 71 1008.7
20260903195516 62 23 1.0 4.0 0.00 0.01 0.00 71 1008.5
20260903194515 62 23 0.0 1.0 0.00 0.01 0.00 71 1008.5
20260903193515 62 23 0.0 4.0 0.00 0.01 0.00 71 1008.3
20260903192515 63 23 0.0 3.0 0.00 0.01 0.00 71 1008.1
20260903191515 63 23 0.0 2.0 0.00 0.01 0.00 69 1008.1
20260903190515 64 68 1.0 3.0 0.00 0.01 0.00 67 1008.0
20260903185515 64 68 1.0 3.0 0.00 0.01 0.00 65 1007.9
20260903184515 65 68 1.0 5.0 0.00 0.01 0.00 65 1007.9
20260903183515 65 68 1.0 7.0 0.00 0.01 0.00 65 1007.7
20260903182515 64 180 0.0 3.0 0.00 0.01 0.00 65 1007.6
20260903181521 63 180 1.0 5.0 0.00 0.01 0.00 69 1007.6
20260903180515 62 203 1.0 6.0 0.00 0.01 0.00 70 1007.5
20260903175515 62 158 2.0 7.0 0.00 0.01 0.00 70 1007.4
20260903174538 62 225 3.0 8.0 0.00 0.01 0.00 70 1007.4
20260903173517 62 225 2.0 6.0 0.00 0.01 0.00 70 1007.2
20260903172517 62 225 1.0 4.0 0.00 0.01 0.00 75 1007.0
20260903171517 61 225 0.0 3.0 0.00 0.01 0.00 75 1007.0
20260903170517 61 216 0.0 0.0 0.00 0.01 0.00 76 1006.9
20260903165517 60 225 0.0 2.0 0.00 0.01 0.00 77 1006.9
20260903164517 60 225 1.0 7.0 0.00 0.01 0.00 76 1006.9
20260903163517 59 225 3.0 7.0 0.00 0.01 0.00 78 1006.9
20260903162517 58 203 1.0 4.0 0.00 0.01 0.00 79 1007.0
20260903161517 58 203 2.0 7.0 0.00 0.01 0.00 79 1007.0
20260903160537 58 248 2.0 7.0 0.00 0.01 0.00 80 1006.9
20260903155517 58 270 1.0 5.0 0.00 0.01 0.00 81 1006.9
20260903154517 57 270 0.0 2.0 0.00 0.01 0.00 82 1006.9
20260903153517 57 270 0.0 4.0 0.00 0.01 0.00 83 1006.9
20260903152517 57 270 0.0 3.0 0.00 0.01 0.00 84 1006.9
20260903151517 57 270 0.0 3.0 0.00 0.01 0.00 84 1006.9
20260903150537 57 270 0.0 1.0 0.00 0.01 0.00 84 1006.9
20260903145517 56 259 0.0 0.0 0.00 0.01 0.00 85 1006.9
20260903144517 56 270 1.0 6.0 0.00 0.01 0.00 85 1006.9
20260903143517 56 270 2.0 7.0 0.00 0.01 0.00 85 1006.9
20260903142517 56 0 0.0 0.0 0.00 0.01 0.00 85 1006.9
20260903141557 56 0 1.0 4.0 0.00 0.01 0.00 85 1006.9
20260903140517 56 0 0.0 2.0 0.00 0.01 0.00 85 1006.8
20260903135517 55 0 0.0 0.0 0.00 0.01 0.00 85 1006.4
20260903134517 55 0 0.0 0.0 0.00 0.01 0.00 85 1006.4
20260903133517 56 0 0.0 0.0 0.00 0.01 0.00 84 1006.4
20260903132516 56 0 1.0 4.0 0.00 0.01 0.00 84 1006.4
20260903131517 56 0 0.0 3.0 0.00 0.01 0.00 85 1006.4
20260903130536 56 0 0.0 0.0 0.00 0.01 0.00 84 1006.2
20260903125516 56 0 0.0 0.0 0.00 0.01 0.00 84 1006.0
20260903124516 56 0 0.0 0.0 0.00 0.01 0.00 84 1006.0
20260903123537 56 0 0.0 0.0 0.00 0.01 0.00 83 1006.0
20260903122517 56 0 1.0 4.0 0.00 0.01 0.00 84 1005.9
20260903121516 56 0 0.0 2.0 0.00 0.01 0.00 84 1005.9
20260903120516 56 0 1.0 6.0 0.00 0.01 0.00 84 1005.6
20260903115536 56 0 0.0 4.0 0.00 0.01 0.00 82 1005.4
20260903114516 56 0 2.0 7.0 0.00 0.01 0.00 82 1005.4
20260903113517 56 315 1.0 5.0 0.00 0.01 0.00 81 1005.3
20260903112516 56 113 2.0 7.0 0.00 0.01 0.00 81 1004.8
20260903111517 56 180 3.0 11.0 0.00 0.01 0.00 82 1004.8
20260903110517 56 158 3.0 15.0 0.00 0.01 0.00 84 1004.6
20260903105556 56 225 4.0 13.0 0.00 0.01 0.00 84 1004.5
20260903104536 56 180 3.0 9.0 0.00 0.01 0.00 84 1004.5
20260903103536 56 180 4.0 13.0 0.00 0.01 0.00 84 1004.5
20260903102516 56 158 3.0 10.0 0.00 0.01 0.00 84 1004.4
20260903101536 56 158 3.0 13.0 0.00 0.01 0.00 84 1004.4
20260903100516 56 180 3.0 11.0 0.00 0.01 0.00 83 1004.6
20260903095516 56 180 3.0 15.0 0.00 0.01 0.00 83 1004.7
20260903094536 56 203 2.0 9.0 0.00 0.01 0.00 83 1004.7
20260903093516 56 180 2.0 7.0 0.00 0.01 0.00 84 1004.8
20260903092516 56 293 3.0 14.0 0.00 0.01 0.00 84 1004.9
20260903091516 55 0 2.0 9.0 0.00 0.01 0.00 85 1004.9
20260903090536 55 225 3.0 13.0 0.00 0.01 0.00 85 1004.8
20260903085521 54 248 0.0 4.0 0.00 0.01 0.00 84 1004.9
20260903084536 54 225 0.0 4.0 0.00 0.01 0.00 83 1004.9
20260903083516 54 225 0.0 4.0 0.00 0.01 0.00 82 1004.9
20260903082516 54 225 1.0 7.0 0.00 0.01 0.00 83 1004.9
20260903081516 54 225 2.0 12.0 0.00 0.01 0.00 84 1004.9
20260903080516 54 203 2.0 6.0 0.00 0.01 0.00 86 1004.6
20260903075536 53 225 1.0 8.0 0.00 0.01 0.00 88 1004.5
20260903074516 53 225 1.0 5.0 0.00 0.01 0.00 88 1004.5
20260903073516 53 225 1.0 4.0 0.00 0.01 0.00 90 1004.7
20260903072516 52 225 0.0 3.0 0.00 0.01 0.00 90 1004.7
20260903071536 51 225 0.0 0.0 0.00 0.01 0.00 91 1004.7
20260903070516 51 225 1.0 6.0 0.00 0.01 0.00 92 1004.7
20260903065555 50 180 0.0 1.0 0.00 0.01 0.01 92 1004.5
20260903064516 50 180 0.0 2.0 0.00 0.01 0.01 93 1004.5
20260903063516 50 180 0.0 2.0 0.00 0.01 0.01 93 1004.5
20260903062516 50 180 0.0 1.0 0.00 0.01 0.01 93 1004.5
20260903061515 50 180 0.0 1.0 0.00 0.01 0.01 93 1004.5
20260903060516 50 180 1.0 4.0 0.00 0.01 0.01 93 1004.4
20260903055515 51 180 0.0 4.0 0.00 0.01 0.01 93 1004.4
20260903054515 50 180 0.0 1.0 0.00 0.01 0.01 92 1004.4
20260903053516 50 170 0.0 0.0 0.00 0.01 0.01 92 1004.5
20260903052537 51 170 0.0 0.0 0.00 0.01 0.01 92 1004.5
20260903051517 51 170 0.0 0.0 0.00 0.01 0.01 92 1004.5
20260903050517 51 170 0.0 0.0 0.00 0.01 0.01 91 1004.3
20260903045517 52 170 0.0 0.0 0.00 0.01 0.01 91 1004.3
20260903044517 52 170 0.0 0.0 0.00 0.01 0.01 91 1004.3
20260903043517 53 170 0.0 0.0 0.00 0.01 0.01 91 1004.2
20260903042517 53 170 0.0 0.0 0.00 0.01 0.01 90 1004.0
20260903041537 54 170 0.0 0.0 0.00 0.01 0.01 90 1004.0
20260903040517 54 170 0.0 0.0 0.00 0.01 0.01 89 1003.8
20260903035517 54 170 0.0 0.0 0.00 0.01 0.01 89 1003.7
20260903034517 55 180 0.0 1.0 0.00 0.01 0.01 88 1003.8
20260903033517 55 180 0.0 1.0 0.00 0.01 0.01 86 1003.3
20260903032517 56 170 0.0 0.0 0.00 0.01 0.01 85 1003.0